Weather History for Rickenbacker, OH

Change the Weather History Date:

Sunday, March 24, 2013

  Actual Average Record
Temperature  
Mean Temperature 35 °F -  
Max Temperature 38 °F 54 °F 75 °F (2007)
Min Temperature 32 °F 34 °F 19 °F (2014)
Degree Days  
Heating Degree Days 30    
Moisture  
Dew Point 25 °F    
Average Humidity 70    
Maximum Humidity 91    
Minimum Humidity 44    
Precipitation  
Precipitation 0.00 in - - ()
Sea Level Pressure  
Sea Level Pressure 29.69 in    
Wind  
Wind Speed 13 mph (ENE)    
Max Wind Speed 21 mph    
Max Gust Speed 26 mph    
Visibility 8 miles    
Events Snow    
Averages and records for this station are not official NWS values.
T = Trace of Precipitation, MM = Missing Value Source: NWS Daily Summary

Daily Weather History Graph

Daily Weather History Graph

Search for Another Location

Airport:

Trip Planner

Search our weather history database for the weather conditions in past years. The results will help you decide how hot, cold, wet, or windy it might be!

Date:

Astronomy

Mar. 24, 2013 Rise Set
Actual Time 7:28 AM EDT 7:48 PM EDT
Civil Twilight 7:01 AM EDT 8:15 PM EDT
Nautical Twilight 6:29 AM EDT 8:46 PM EDT
Astronomical Twilight 5:57 AM EDT 9:19 PM EDT
Moon 5:15 PM EDT (3/24) 5:37 AM EDT (3/24)
Length of Visible Light 13h 13m
Length of Day
12h 19m
Waxing Gibbous, 91% of the Moon is Illuminated
Mar 24
Waxing Gibbous
Mar 27
Full
Apr 3
Last Quarter
Apr 10
New
Apr 18
First Quarter

Hourly Weather History & Observations

Time (EDT) Temp. Windchill Dew Point Humidity Pressure Visibility Wind Dir Wind Speed Gust Speed Precip Events Conditions
12:15 AM 33.3 °F 24.6 °F 24.1 °F 69% 29.93 in 10.0 mi NE 11.5 mph - N/A   Clear
12:35 AM 34.2 °F 25.2 °F 25.0 °F 69% 29.92 in 10.0 mi NE 12.7 mph - N/A   Clear
12:55 AM 34.7 °F 26.9 °F 24.8 °F 67% 29.91 in 10.0 mi NE 10.4 mph - N/A   Clear
1:15 AM 34.3 °F 25.9 °F 24.8 °F 68% 29.91 in 10.0 mi NE 11.5 mph - N/A   Clear
1:35 AM 34.3 °F 25.9 °F 24.8 °F 68% 29.91 in 10.0 mi NE 11.5 mph - N/A   Clear
1:55 AM 34.7 °F 26.9 °F 24.6 °F 67% 29.91 in 10.0 mi ENE 10.4 mph - N/A   Clear
2:15 AM 34.7 °F 25.9 °F 24.3 °F 66% 29.91 in 10.0 mi ENE 12.7 mph - N/A   Clear
2:35 AM 34.7 °F 25.9 °F 23.9 °F 65% 29.91 in 10.0 mi ENE 12.7 mph 18.4 mph N/A   Clear
2:55 AM 34.3 °F 26.5 °F 23.9 °F 66% 29.91 in 10.0 mi ENE 10.4 mph - N/A   Clear
3:35 AM 33.6 °F 26.2 °F 23.7 °F 67% 29.92 in 10.0 mi ENE 9.2 mph - N/A   Clear
3:55 AM 33.4 °F 25.9 °F 23.7 °F 68% 29.92 in 10.0 mi ENE 9.2 mph - N/A   Clear
4:15 AM 33.3 °F 25.7 °F 23.7 °F 68% 29.93 in 10.0 mi NE 9.2 mph - N/A   Clear
4:35 AM 33.1 °F 25.5 °F 23.7 °F 68% 29.91 in 10.0 mi NE 9.2 mph - N/A   Clear
4:55 AM 32.9 °F 24.7 °F 23.9 °F 69% 29.90 in 10.0 mi ENE 10.4 mph - N/A   Clear
5:15 AM 32.9 °F 23.7 °F 23.9 °F 69% 29.89 in 10.0 mi NE 12.7 mph - N/A   Clear
5:35 AM 32.9 °F 23.7 °F 23.7 °F 69% 29.88 in 10.0 mi ENE 12.7 mph - N/A   Clear
5:55 AM 32.9 °F 23.2 °F 23.5 °F 68% 29.86 in 10.0 mi NE 13.8 mph - N/A   Clear
6:15 AM 32.9 °F 24.1 °F 23.4 °F 68% 29.87 in 10.0 mi NE 11.5 mph - N/A   Clear
6:35 AM 32.9 °F 23.7 °F 23.0 °F 67% 29.86 in 10.0 mi ENE 12.7 mph - N/A   Clear
6:55 AM 32.9 °F 22.4 °F 23.0 °F 67% 29.85 in 10.0 mi NE 16.1 mph 19.6 mph N/A   Clear
7:15 AM 32.9 °F 22.0 °F 22.8 °F 66% 29.83 in 10.0 mi ENE 17.3 mph - N/A   Clear
7:35 AM 32.9 °F 21.6 °F 22.5 °F 65% 29.81 in 10.0 mi NE 18.4 mph 25.3 mph N/A   Clear
7:55 AM 33.1 °F 22.2 °F 21.9 °F 64% 29.79 in 10.0 mi ENE 17.3 mph 24.2 mph N/A   Clear
8:15 AM 33.4 °F 23.1 °F 21.2 °F 61% 29.79 in 10.0 mi ENE 16.1 mph 20.7 mph N/A   Clear
8:35 AM 33.8 °F 23.9 °F 21.0 °F 60% 29.79 in 10.0 mi ENE 15.0 mph - N/A   Clear
8:55 AM 34.0 °F 23.8 °F 21.0 °F 59% 29.78 in 10.0 mi ENE 16.1 mph - N/A   Clear
9:15 AM 34.2 °F 24.0 °F 21.2 °F 59% 29.77 in 10.0 mi ENE 16.1 mph - N/A   Clear
9:35 AM 34.5 °F 24.5 °F 21.4 °F 59% 29.75 in 10.0 mi ENE 16.1 mph - N/A   Clear
9:55 AM 35.1 °F 25.9 °F 21.2 °F 57% 29.75 in 10.0 mi ENE 13.8 mph 21.9 mph N/A   Clear
10:15 AM 36.0 °F 26.0 °F 20.5 °F 53% 29.75 in 10.0 mi ENE 17.3 mph 21.9 mph N/A   Clear
10:35 AM 36.0 °F 26.7 °F 20.1 °F 53% 29.74 in 10.0 mi ENE 15.0 mph - N/A   Scattered Clouds
10:55 AM 36.0 °F 26.0 °F 19.4 °F 51% 29.73 in 10.0 mi ENE 17.3 mph 23.0 mph N/A   Overcast
11:15 AM 36.3 °F 26.8 °F 19.6 °F 51% 29.72 in 10.0 mi NE 16.1 mph 24.2 mph N/A   Overcast
11:35 AM 36.7 °F 28.0 °F 19.4 °F 50% 29.72 in 10.0 mi NE 13.8 mph 20.7 mph N/A   Overcast
11:55 AM 37.2 °F 28.3 °F 19.0 °F 48% 29.71 in 10.0 mi NE 15.0 mph 20.7 mph N/A   Overcast
12:15 PM 37.6 °F 29.1 °F 18.9 °F 47% 29.71 in 10.0 mi NE 13.8 mph - N/A   Overcast
12:35 PM 37.6 °F 29.1 °F 18.0 °F 45% 29.70 in 10.0 mi NE 13.8 mph 23.0 mph N/A   Overcast
12:55 PM 37.8 °F 29.4 °F 18.1 °F 45% 29.70 in 10.0 mi NE 13.8 mph - N/A   Overcast
1:15 PM 38.1 °F 31.2 °F 18.0 °F 44% 29.70 in 10.0 mi ENE 10.4 mph - N/A   Overcast
1:35 PM 37.8 °F 29.4 °F 18.9 °F 47% 29.70 in 5.0 mi ENE 13.8 mph - N/A Snow Light Snow
1:55 PM 35.4 °F 26.8 °F 24.3 °F 64% 29.68 in 0.8 mi ENE 12.7 mph 20.7 mph N/A Snow Light Snow
2:15 PM 34.0 °F 23.0 °F 27.3 °F 77% 29.66 in 0.5 mi ENE 18.4 mph - N/A Snow Light Snow
2:35 PM 33.3 °F 22.8 °F 28.6 °F 83% 29.63 in 0.8 mi ENE 16.1 mph - N/A Snow Light Snow
2:55 PM 32.9 °F 23.2 °F 29.3 °F 87% 29.62 in 0.5 mi ENE 13.8 mph - N/A Snow Light Snow
3:15 PM 32.9 °F 23.2 °F 29.5 °F 87% 29.60 in 1.8 mi ENE 13.8 mph - N/A Snow Light Snow
3:35 PM 33.3 °F 23.7 °F 29.8 °F 87% 29.59 in 1.2 mi ENE 13.8 mph - N/A Snow Light Snow
3:55 PM 33.6 °F 23.7 °F 29.8 °F 86% 29.58 in 2.0 mi ENE 15.0 mph - N/A Snow Light Snow
4:15 PM 33.8 °F 23.9 °F 29.8 °F 85% 29.56 in 4.0 mi ENE 15.0 mph - N/A Snow Light Snow
4:35 PM 34.2 °F 24.8 °F 30.2 °F 85% 29.54 in 4.0 mi ENE 13.8 mph 19.6 mph N/A Snow Light Snow
4:55 PM 34.5 °F 24.1 °F 30.2 °F 84% 29.53 in 5.0 mi ENE 17.3 mph 25.3 mph N/A Snow Light Snow
5:15 PM 34.9 °F 23.6 °F 30.0 °F 82% 29.52 in 10.0 mi ENE 20.7 mph 26.5 mph N/A   Overcast
5:35 PM 35.1 °F 25.5 °F 29.8 °F 81% 29.53 in 10.0 mi East 15.0 mph 21.9 mph N/A   Overcast
5:55 PM 35.2 °F 27.1 °F 29.8 °F 81% 29.54 in 10.0 mi ENE 11.5 mph 23.0 mph N/A   Overcast
6:15 PM 35.4 °F 26.0 °F 29.8 °F 80% 29.52 in 10.0 mi ENE 15.0 mph - N/A   Overcast
6:35 PM 35.6 °F 25.9 °F 30.0 °F 80% 29.51 in 10.0 mi ENE 16.1 mph - N/A   Overcast
6:55 PM 35.6 °F 26.2 °F 30.2 °F 81% 29.50 in 10.0 mi NE 15.0 mph 21.9 mph N/A   Overcast
7:15 PM 35.6 °F 27.1 °F 30.2 °F 81% 29.50 in 10.0 mi ENE 12.7 mph - N/A   Overcast
7:35 PM 35.6 °F 26.6 °F 30.2 °F 81% 29.50 in 7.0 mi NE 13.8 mph - N/A   Overcast
7:55 PM 35.4 °F 26.4 °F 30.4 °F 82% 29.48 in 10.0 mi ENE 13.8 mph - N/A   Overcast
8:15 PM 35.6 °F 26.2 °F 30.2 °F 81% 29.47 in 7.0 mi ENE 15.0 mph 19.6 mph N/A   Overcast
8:35 PM 35.8 °F 26.1 °F 30.2 °F 80% 29.46 in 10.0 mi ENE 16.1 mph 20.7 mph N/A   Overcast
8:55 PM 36.1 °F 27.3 °F 30.2 °F 79% 29.44 in 10.0 mi ENE 13.8 mph - N/A   Overcast
9:15 PM 36.5 °F 31.8 °F 30.4 °F 78% 29.47 in 10.0 mi ENE 5.8 mph - N/A   Overcast
9:35 PM 37.0 °F 32.4 °F 30.0 °F 76% 29.48 in 10.0 mi East 5.8 mph - N/A Snow Light Snow
9:55 PM 36.3 °F 28.9 °F 30.4 °F 79% 29.46 in 2.0 mi ENE 10.4 mph - N/A Snow Light Snow
10:15 PM 35.1 °F 27.9 °F 30.7 °F 84% 29.45 in 1.8 mi NE 9.2 mph - N/A Snow Light Snow
10:35 PM 34.5 °F 30.4 °F 31.1 °F 87% 29.46 in 2.5 mi ENE 4.6 mph - N/A Snow Light Snow
10:55 PM 33.8 °F 28.6 °F 30.9 °F 89% 29.45 in 0.5 mi NE 5.8 mph - N/A Snow Heavy Snow
11:15 PM 33.1 °F 27.7 °F 30.4 °F 90% 29.44 in 0.5 mi NNE 5.8 mph - N/A Snow Heavy Snow
11:35 PM 32.2 °F 25.0 °F 29.8 °F 91% 29.42 in 0.8 mi NNE 8.1 mph - N/A Snow Snow
11:55 PM 32.0 °F 24.8 °F 29.3 °F 90% 29.41 in 1.0 mi NNE 8.1 mph - N/A Snow Snow